Location: Caltech
(34.1382°N, 118.1253°W)
Time: 18:37:31
(UTC-07:00)

Hamsat - Visible Passes

Search period start: 17 September 2014 00:00
Search period end: 27 September 2014 00:00
Orbit: 594 x 628 km, 97.6° (Epoch: 16 September)

Date Brightness Start Highest point End Pass type
(mag) Time Alt. Az. Time Alt. Az. Time Alt. Az.
18 Sep ? 05:44:57 10° ENE 05:47:23 15° E 05:49:48 10° SE visible
19 Sep ? 05:58:41 10° NE 06:02:00 22° E 06:05:17 10° SSE visible
22 Sep ? 19:08:12 10° SW 19:10:58 17° W 19:13:45 10° NW visible
23 Sep ? 19:24:30 10° WSW 19:25:36 11° W 19:26:42 10° WNW visible
24 Sep ? 05:36:56 10° ENE 05:38:27 12° E 05:39:57 10° ESE visible
25 Sep ? 05:50:12 10° NE 05:53:04 18° E 05:55:54 10° SE visible
26 Sep ? 06:04:05 10° NE 06:07:39 26° E 06:11:10 10° SSE visible
